Wetbulb
38.22 34.92 33.32 38.02 37.00 38.91 32.48 31.75 31.34 35.10 38.70 34.60 35.86 37.80 39.99 43.04 42.48 43.43 43.61 42.35 44.16 44.81 47.24 47.67 42.67 41.95 41.24 39.71 40.22 39.92 38.73 39.01 39.59 37.53 36.41 36.46 36.80 36.19 35.16 34.59 34.85 34.35 33.72 33.28
34.48 32.83 39.35 38.75 37.19 35.65 34.40 33.74 33.88 38.07 39.69 34.35 36.54 36.67 39.05 39.58 41.71 43.26 44.29 44.38 44.85 44.98 45.56 46.00 40.86 39.77 39.73 41.05 40.30 39.55 38.95 38.26 39.38 39.44 39.77 36.55 38.24 33.56 35.25 33.93 33.04 33.23 32.54 32.00
37.02 37.79 39.92 37.85 35.64 34.19 34.15 32.91 35.04 34.56 35.29 34.30 32.91 34.76 36.44 37.41 38.64 41.79 43.25 44.22 44.43 44.12 44.52 45.72 40.42 38.99 38.42 38.66 39.16 38.92 39.03 37.96 39.46 39.33 36.85 31.62 30.94 29.85 29.50 30.03 31.68 31.76 31.92 31.66
35.18 39.32 38.27 34.89 34.08 36.34 34.41 36.48 36.42 34.16 29.98 29.28 32.26 28.96 31.95 37.49 39.39 40.08 41.00 42.26 41.78 43.14 44.15 43.70 40.29 38.12 38.04 40.11 38.84 38.46 38.51 37.51 39.00 38.51 36.79 35.81 35.21 34.32 33.85 35.25 33.69 30.77 31.04 30.63
34.30 33.55 33.28 33.72 36.96 36.47 35.49 36.10 33.76 30.65 28.62 27.80 28.16 25.38 31.03 34.36 35.52 36.96 39.40 40.45 42.05 43.19 42.58 42.73 38.91 39.79 38.94 37.09 36.04 36.72 37.04 37.33 38.25 37.92 37.92 36.38 36.23 36.14 30.43 29.57 29.04 30.19 28.95 29.71
35.22 35.15 36.44 36.24 35.38 36.41 35.44 33.08 30.89 28.39 28.33 24.02 29.73 28.89 33.73 31.85 35.36 35.70 38.27 40.48 41.32 41.57 42.10 39.51 39.07 38.33 36.25 33.95 34.46 35.46 35.75 36.36 36.97 37.28 36.91 36.06 36.35 32.10 30.89 30.02 30.31 29.78 29.56 28.74
31.03 32.31 33.39 36.84 33.27 32.51 33.15 30.02 23.16 20.63 19.19 23.29 29.06 26.32 35.98 36.19 37.52 38.28 41.23 39.02 39.94 39.84 39.08 42.12 38.63 37.68 34.96 32.99 33.60 34.70 35.24 35.21 35.25 35.80 35.99 35.52 35.68 33.50 32.68 30.67 31.62 29.50 28.76 28.24
27.87 30.32 32.92 35.25 35.29 32.49 31.09 31.68 24.84 17.49 20.55 28.10 25.21 24.24 35.56 38.43 39.19 37.94 38.18 38.74 38.35 39.19 40.08 37.54 38.96 36.66 34.59 33.98 33.24 34.41 34.62 34.66 34.50 35.29 35.50 35.44 35.18 34.60 33.45 31.76 31.87 30.64 30.68 30.23
27.07 28.52 31.98 33.83 34.53 36.83 30.19 28.18 34.03 27.54 23.28 23.52 30.11 32.24 37.50 36.77 37.14 35.78 36.95 36.40 37.91 38.13 38.58 37.22 37.56 35.19 34.55 32.78 32.73 33.80 33.83 34.79 34.43 34.69 34.95 34.47 34.31 34.04 33.08 30.78 30.97 31.03 30.29 29.44
33.77 28.53 33.47 31.47 32.53 33.34 33.82 34.53 26.42 25.21 19.00 19.36 25.88 29.49 32.48 36.53 39.64 36.62 36.69 36.45 38.40 39.16 38.50 37.71 36.98 35.67 34.24 33.66 33.57 33.44 33.51 34.13 33.58 33.74 34.61 34.44 33.93 34.13 33.05 29.82 30.01 30.03 29.44 27.77
35.76 34.00 33.05 32.31 30.80 34.17 28.84 28.69 29.70 30.33 27.99 25.35 24.39 29.13 40.18 39.64 35.45 35.17 38.30 39.82 39.87 37.89 39.17 38.79 38.90 37.52 36.05 34.31 34.15 34.47 34.11 33.24 33.18 33.17 34.07 33.84 33.28 33.65 32.47 30.15 30.08 29.76 28.41 27.06
38.43 35.87 31.65 33.45 34.52 34.87 33.53 32.27 31.88 26.36 26.65 28.19 29.44 30.60 41.40 42.22 38.56 39.40 41.23 43.25 41.98 38.71 41.48 39.76 39.42 37.98 37.82 36.20 35.07 34.62 35.48 33.92 34.60 34.93 34.63 33.65 33.14 31.87 31.20 30.35 29.16 29.51 27.66 26.90
38.71 33.96 29.87 30.41 32.19 32.48 32.40 35.12 35.09 34.93 32.07 26.94 24.66 28.84 41.12 41.97 41.83 42.41 40.70 39.20 39.96 40.00 40.11 39.89 39.06 39.19 39.81 39.58 37.26 34.69 34.37 34.86 34.60 33.47 32.38 31.63 31.30 30.32 30.76 31.05 28.47 28.26 27.57 26.52
41.41 36.37 33.53 28.75 30.18 34.30 32.07 33.05 34.57 33.17 28.28 28.54 29.39 31.78 36.55 39.16 40.05 41.84 41.77 40.55 38.35 35.47 35.85 35.89 35.73 36.23 37.53 39.34 39.20 38.12 36.52 35.81 33.54 31.84 31.57 32.22 31.60 31.38 32.19 31.70 28.44 27.52 27.46 26.15
37.90 31.75 33.06 33.81 34.97 34.97 34.14 33.42 34.29 32.90 33.14 28.78 31.99 32.73 36.72 39.44 34.40 31.42 34.36 32.77 31.56 31.43 32.52 33.14 34.78 35.24 36.51 37.53 38.89 38.92 39.55 37.17 32.98 32.23 32.98 32.96 33.14 33.06 32.31 31.03 28.08 27.19 26.50 26.72
34.86 27.74 30.67 28.72 30.58 31.07 30.38 32.61 32.21 31.88 30.49 30.30 30.80 30.86 26.21 26.39 26.93 26.94 27.99 27.74 27.71 29.12 31.25 32.73 33.95 34.34 35.29 36.57 36.73 36.41 36.30 36.99 32.72 33.55 32.89 33.89 32.66 30.23 30.52 30.33 27.79 26.19 25.12 24.89
28.86 27.83 25.54 21.31 26.42 25.85 21.15 26.33 28.78 30.78 30.70 29.10 24.86 21.60 25.06 23.40 23.55 24.49 26.47 27.37 27.94 29.60 31.30 32.57 33.43 34.65 35.64 35.81 34.67 34.59 33.24 33.72 34.24 32.89 33.96 32.13 28.72 28.56 28.57 27.70 26.08 25.36 24.28 23.61
26.91 25.07 24.36 19.30 20.54 10.39 23.08 28.77 30.08 27.98 25.06 24.99 23.94 24.29 23.96 23.86 25.43 27.07 30.51 27.33 28.40 30.45 33.16 33.95 35.54 34.89 34.97 35.23 34.62 33.57 32.30 32.11 30.62 31.82 32.23 27.85 28.64 29.09 26.44 24.98 23.79 24.01 23.83 22.64
29.85 26.55 18.94 8.42 7.27 19.08 23.91 23.54 21.20 20.79 20.23 24.27 22.90 23.83 23.92 25.15 25.25 25.96 28.19 29.16 29.30 31.39 32.37 32.47 32.98 33.61 34.29 33.19 34.00 32.12 31.06 30.82 28.62 27.89 28.13 27.16 26.49 27.06 23.65 24.00 23.25 23.35 23.00 22.01
25.14 26.40 19.01 5.41 9.01 8.79 19.50 22.92 26.41 25.36 17.90 24.62 24.99 23.85 22.87 23.06 15.31 18.99 26.99 28.37 30.37 29.44 28.68 28.01 29.61 31.07 31.57 31.99 33.60 31.59 30.45 30.69 29.13 26.29 25.90 23.54 22.13 21.65 23.30 23.27 22.16 22.60 22.47 21.47
3.54 2.20 1.99 -2.21 -0.33 8.33 17.47 20.77 23.16 5.72 10.58 21.61 25.49 23.25 21.42 19.94 23.16 25.46 27.11 27.96 27.68 26.10 25.74 26.78 26.74 26.76 28.92 31.20 30.94 30.48 30.95 30.20 29.46 24.17 20.58 17.74 18.85 19.75 22.52 22.53 21.33 19.85 19.57 19.68
10.88 -0.11 -2.73 -4.52 -5.50 1.47 21.57 20.54 15.41 17.49 21.13 23.26 23.21 23.25 23.41 24.21 23.95 24.40 25.55 24.24 22.79 22.44 23.03 24.16 24.17 25.17 25.26 25.86 27.53 27.32 28.07 30.87 29.91 26.21 20.58 19.70 16.76 17.68 20.55 20.76 19.55 18.67 18.38 16.91
7.02 14.12 5.49 9.62 9.10 22.73 24.63 23.08 25.21 24.60 23.48 22.83 23.24 24.32 24.54 22.25 20.67 22.04 20.01 19.79 20.42 20.94 21.17 21.91 20.87 19.14 20.77 22.39 22.42 20.87 22.18 25.26 29.78 29.41 26.53 22.88 20.81 18.96 19.67 18.36 17.11 16.57 16.91 15.63
16.73 21.23 15.55 12.82 20.87 21.74 23.26 24.83 24.94 25.27 24.49 24.99 24.82 22.61 21.35 19.23 19.96 18.65 18.30 18.55 18.60 18.70 18.06 19.55 17.11 15.68 15.54 17.52 18.54 18.77 20.35 23.02 22.51 24.47 26.09 23.13 19.64 18.36 18.03 18.09 16.54 16.54 15.01 15.25
17.99 18.74 15.30 16.05 21.03 22.30 23.60 24.61 25.23 24.44 23.61 22.76 21.42 20.25 18.85 18.30 16.94 16.82 16.19 16.10 16.46 16.50 16.97 16.53 14.58 13.80 13.16 14.17 14.51 15.62 16.72 17.26 17.13 19.70 23.36 22.16 18.97 18.29 16.94 17.09 16.62 16.82 17.78 18.52
21.43 19.11 16.04 14.42 22.79 22.00 22.77 25.53 23.66 21.34 21.11 18.45 16.70 16.40 17.75 17.06 15.44 15.47 13.65 14.62 14.70 13.93 13.99 12.34 11.28 10.30 10.06 10.26 10.42 11.42 11.87 12.24 12.77 13.86 17.42 21.28 18.68 16.82 16.30 15.34 14.76 21.53 21.80 22.23
MSLP
1015.70 1016.06 1015.81 1014.91 1015.06 1014.76 1015.70 1015.69 1015.13 1013.87 1012.82 1012.92 1011.98 1011.02 1010.54 1009.53 1009.06 1008.04 1007.37 1006.78 1005.64 1005.11 1003.32 1003.62 1004.19 1004.84 1005.67 1006.53 1007.18 1007.72 1008.78 1009.59 1010.78 1012.00 1013.10 1014.32 1014.67 1015.55 1016.10 1016.41 1016.81 1017.42 1017.99 1018.56
1016.18 1015.23 1013.92 1014.32 1014.91 1015.44 1015.64 1015.47 1014.84 1013.11 1012.67 1012.77 1011.64 1009.91 1009.61 1009.27 1007.86 1006.82 1005.47 1005.16 1004.11 1003.57 1003.18 1002.70 1003.75 1004.38 1004.83 1005.07 1006.03 1007.03 1007.74 1008.74 1009.51 1010.51 1011.35 1012.47 1013.54 1014.62 1015.24 1015.95 1016.47 1016.92 1017.60 1018.23
1014.48 1013.83 1013.97 1014.44 1014.77 1015.44 1014.64 1015.17 1013.90 1013.56 1013.21 1012.46 1011.24 1008.13 1008.56 1007.19 1006.55 1005.46 1004.45 1003.59 1003.65 1003.37 1002.87 1002.26 1003.38 1003.88 1004.37 1004.78 1005.11 1005.67 1006.39 1007.48 1008.47 1009.61 1011.06 1012.32 1013.51 1014.69 1015.41 1015.92 1016.30 1016.65 1017.15 1017.82
1014.54 1013.11 1013.51 1014.10 1014.45 1014.42 1013.73 1013.74 1013.99 1014.01 1014.30 1013.58 1012.10 1006.46 1007.04 1006.63 1005.55 1004.72 1003.81 1003.10 1003.02 1002.63 1002.07 1002.06 1002.76 1003.57 1003.64 1003.51 1004.33 1005.22 1006.09 1007.03 1007.93 1008.78 1009.78 1010.77 1011.41 1012.78 1013.39 1014.07 1015.27 1016.08 1016.70 1017.37
1013.42 1013.08 1013.55 1013.90 1012.99 1013.72 1012.78 1013.22 1013.72 1014.34 1014.61 1013.95 1012.78 1011.91 1005.82 1005.07 1005.30 1004.13 1003.19 1002.95 1002.17 1001.79 1001.78 1001.78 1002.45 1002.63 1002.65 1003.18 1003.88 1004.77 1005.68 1006.68 1007.36 1008.11 1008.61 1009.32 1010.32 1011.36 1012.31 1013.45 1014.62 1015.44 1016.19 1016.64
1013.32 1012.96 1012.78 1012.78 1012.78 1012.88 1013.06 1013.52 1014.17 1014.95 1015.15 1013.77 1011.98 1011.47 1001.49 1004.81 1004.21 1003.66 1003.23 1002.71 1002.37 1002.23 1002.02 1002.19 1002.04 1002.21 1002.90 1003.40 1003.47 1004.42 1005.40 1006.17 1006.79 1007.52 1008.17 1008.80 1009.46 1010.53 1011.74 1012.74 1013.71 1014.65 1015.50 1016.22
1013.12 1012.82 1011.77 1011.93 1012.88 1012.97 1013.33 1014.13 1015.24 1015.22 1014.84 1012.34 1010.11 1010.04 1003.05 1003.81 1003.46 1003.06 1002.80 1003.10 1002.97 1002.74 1002.47 1001.79 1001.89 1002.07 1002.93 1003.64 1004.19 1004.12 1004.93 1005.72 1006.46 1007.18 1007.64 1008.17 1008.85 1009.66 1010.62 1011.60 1012.53 1013.74 1014.71 1015.28
1014.02 1011.91 1011.67 1011.27 1011.52 1011.90 1013.10 1013.60 1014.34 1013.99 1013.34 1011.14 1010.43 1007.61 1002.88 1003.32 1002.73 1002.61 1002.81 1003.08 1003.08 1002.77 1002.30 1002.06 1001.96 1002.51 1002.95 1003.49 1004.69 1004.71 1004.89 1005.55 1005.96 1006.66 1007.23 1007.66 1008.03 1008.67 1009.63 1010.54 1011.26 1012.02 1012.77 1013.85
1013.49 1011.97 1011.13 1010.87 1010.58 1010.72 1011.90 1012.49 1011.76 1012.42 1012.08 1011.72 1008.45 1005.70 1003.93 1002.46 1002.55 1002.34 1002.72 1002.82 1003.06 1002.46 1002.42 1002.46 1002.03 1002.24 1003.16 1003.99 1004.55 1005.21 1005.68 1005.60 1006.50 1006.10 1007.02 1007.67 1008.24 1008.47 1008.84 1009.66 1010.56 1011.26 1011.87 1012.72
1012.88 1012.78 1011.52 1011.49 1011.50 1010.71 1010.99 1010.90 1011.60 1012.36 1011.68 1009.70 1007.67 1005.59 1003.35 1002.31 1001.94 1002.56 1002.59 1002.82 1002.48 1002.33 1002.80 1002.71 1002.43 1002.82 1003.33 1003.75 1004.25 1004.82 1005.11 1005.62 1005.85 1006.56 1006.48 1006.58 1007.06 1007.65 1008.11 1009.07 1009.64 1010.14 1011.01 1011.79
1012.59 1012.92 1011.61 1011.73 1011.61 1011.33 1011.55 1011.38 1010.85 1010.29 1010.14 1008.62 1006.59 1004.67 1002.96 1001.75 1002.43 1002.45 1002.39 1002.40 1002.44 1002.80 1002.82 1002.95 1002.50 1002.76 1003.44 1003.76 1004.40 1004.42 1004.39 1004.63 1004.78 1005.38 1005.76 1006.16 1006.29 1006.49 1007.29 1007.76 1008.78 1009.51 1010.29 1011.08
1012.67 1012.55 1012.35 1011.27 1010.71 1010.73 1010.97 1010.46 1010.65 1010.44 1008.51 1007.38 1005.87 1003.69 1002.83 1001.36 1001.91 1002.63 1002.54 1002.77 1002.69 1002.87 1002.29 1002.25 1002.90 1002.75 1003.56 1003.94 1004.05 1003.58 1003.24 1003.75 1003.63 1003.87 1004.54 1004.81 1005.70 1006.26 1006.78 1006.84 1007.19 1008.31 1009.35 1010.35
1012.42 1012.27 1012.13 1011.89 1011.17 1010.61 1010.99 1010.06 1009.65 1009.12 1008.97 1007.69 1005.97 1003.73 1003.54 1002.97 1002.51 1002.55 1003.42 1003.73 1003.44 1003.43 1003.39 1003.62 1004.05 1004.58 1004.01 1003.38 1003.11 1002.84 1003.19 1003.17 1003.37 1003.25 1003.75 1004.30 1005.05 1005.84 1005.84 1005.85 1006.51 1007.45 1008.37 1009.11
1013.38 1012.69 1012.80 1011.78 1011.42 1011.17 1010.86 1010.46 1009.56 1009.35 1008.52 1006.70 1005.95 1004.94 1005.36 1004.87 1004.40 1003.92 1005.14 1005.35 1006.13 1006.56 1006.80 1006.58 1006.53 1006.45 1005.95 1004.94 1004.36 1003.39 1002.93 1002.87 1002.82 1002.78 1002.88 1002.97 1003.22 1003.52 1004.06 1004.81 1005.31 1006.14 1007.13 1008.15
1013.73 1012.47 1013.07 1012.42 1012.02 1011.66 1011.32 1010.72 1010.01 1009.11 1008.05 1007.64 1006.68 1006.76 1006.87 1007.18 1008.23 1008.61 1008.08 1008.16 1008.34 1007.84 1007.82 1008.37 1008.00 1007.08 1005.52 1004.89 1004.43 1003.65 1002.96 1002.71 1002.78 1002.47 1002.68 1002.10 1001.73 1001.99 1002.92 1003.74 1004.11 1005.19 1006.09 1007.11
1014.92 1013.53 1013.58 1012.72 1012.05 1012.12 1011.32 1010.76 1010.04 1009.60 1009.29 1008.87 1008.34 1008.44 1011.26 1011.02 1010.63 1010.68 1010.72 1009.96 1009.59 1009.69 1009.67 1009.38 1008.63 1006.97 1006.77 1006.27 1005.47 1005.19 1004.51 1003.10 1002.40 1001.86 1001.97 1001.50 1001.48 1002.02 1001.91 1003.00 1003.26 1003.81 1005.05 1006.34
1015.69 1014.99 1014.62 1012.89 1012.96 1012.64 1011.15 1010.07 1009.93 1009.50 1010.02 1009.93 1010.75 1012.87 1013.30 1012.99 1012.48 1012.67 1011.97 1011.49 1011.05 1010.80 1010.05 1009.23 1008.44 1008.09 1007.85 1007.09 1006.30 1005.65 1004.82 1003.70 1002.95 1002.02 1001.03 1000.73 1000.89 1001.44 1001.70 1001.89 1003.05 1003.29 1004.81 1005.90
1015.29 1015.71 1015.79 1014.31 1014.13 1012.73 1009.81 1009.58 1010.21 1011.16 1012.31 1012.97 1013.64 1014.07 1014.37 1014.11 1013.49 1012.58 1012.05 1011.68 1011.42 1011.07 1010.57 1009.89 1009.44 1008.85 1008.12 1007.67 1006.89 1006.01 1005.46 1004.20 1003.46 1002.34 1001.73 1001.44 1001.26 1001.07 1001.55 1001.27 1001.76 1002.70 1003.77 1004.48
1015.36 1016.05 1016.50 1016.38 1015.16 1012.99 1011.85 1012.06 1012.51 1012.81 1013.50 1013.99 1014.65 1014.76 1014.38 1013.81 1013.13 1012.37 1012.09 1012.26 1012.19 1011.41 1010.79 1010.24 1009.72 1009.21 1008.90 1007.95 1006.98 1006.19 1005.27 1004.68 1003.55 1002.65 1002.56 1002.56 1001.54 1001.62 1002.21 1001.89 1002.22 1002.48 1003.30 1003.99
1015.87 1016.58 1017.76 1017.85 1017.41 1015.50 1013.99 1013.65 1013.28 1013.29 1013.64 1014.08 1014.32 1014.46 1014.33 1013.83 1012.84 1011.08 1011.78 1012.38 1012.02 1011.50 1010.97 1010.67 1009.63 1009.46 1009.08 1007.93 1007.33 1006.52 1005.46 1005.08 1004.20 1003.66 1002.14 1001.77 1002.14 1001.77 1002.07 1002.03 1002.12 1002.79 1003.47 1003.78
1017.73 1018.34 1019.11 1018.87 1018.15 1015.85 1014.70 1013.99 1013.19 1013.86 1014.01 1013.57 1014.08 1014.07 1013.95 1013.85 1013.56 1012.32 1011.98 1011.71 1011.66 1011.29 1010.83 1010.20 1009.68 1009.34 1009.02 1008.29 1007.82 1006.64 1005.23 1004.41 1003.73 1003.60 1003.36 1001.91 1002.13 1002.50 1002.48 1002.25 1002.61 1003.20 1004.09 1004.39
1018.28 1019.13 1019.65 1019.08 1018.20 1016.16 1014.11 1013.56 1014.25 1013.85 1013.61 1013.67 1013.70 1013.67 1013.71 1013.46 1013.18 1012.86 1012.40 1012.26 1011.92 1011.24 1011.02 1010.54 1009.92 1009.83 1008.56 1009.03 1008.63 1006.76 1005.80 1004.62 1003.48 1003.09 1003.08 1003.19 1002.04 1001.98 1002.45 1003.29 1003.20 1003.80 1004.53 1004.40
1017.91 1017.63 1017.72 1017.57 1015.59 1014.00 1013.14 1013.21 1012.72 1013.00 1013.07 1013.02 1013.28 1013.44 1013.58 1013.51 1013.31 1013.04 1012.87 1012.46 1011.97 1011.49 1011.01 1010.51 1010.08 1009.27 1009.38 1008.91 1008.16 1007.03 1006.17 1005.22 1003.18 1002.66 1002.69 1002.53 1002.24 1002.10 1001.89 1002.38 1003.32 1004.13 1004.90 1004.87
1016.18 1015.79 1016.11 1015.80 1014.25 1013.37 1012.75 1012.55 1012.51 1012.45 1012.68 1012.85 1013.04 1013.28 1013.66 1013.76 1013.46 1013.33 1013.06 1012.37 1011.86 1011.32 1010.88 1010.63 1010.48 1009.95 1008.90 1008.57 1007.76 1006.85 1005.68 1005.14 1004.14 1003.35 1002.54 1002.15 1001.73 1001.52 1002.03 1001.70 1002.06 1002.82 1003.65 1003.98
1014.66 1014.98 1014.54 1013.83 1013.03 1012.58 1011.99 1011.95 1011.92 1012.24 1012.60 1012.99 1013.30 1013.59 1013.75 1013.85 1013.43 1013.54 1012.99 1012.42 1011.98 1011.44 1010.89 1010.70 1010.19 1009.49 1008.37 1007.93 1006.82 1006.17 1005.83 1005.29 1004.44 1003.37 1001.80 1001.23 1001.23 1000.74 1000.80 1001.54 1001.33 1001.55 1001.58 1001.60
1013.61 1013.28 1013.42 1012.22 1011.60 1012.00 1011.75 1011.33 1011.84 1012.60 1013.03 1013.49 1013.90 1013.73 1013.78 1013.93 1013.54 1013.38 1012.71 1012.25 1011.86 1011.22 1010.69 1010.36 1009.85 1009.23 1007.99 1007.51 1006.40 1005.44 1005.68 1005.45 1004.54 1003.15 1001.91 1001.07 1000.15 1000.15 1000.34 1000.09 1000.75 1000.68 1001.46 1001.69
Wind_Speed
3 5 11 22 17 13 4 7 9 9 10 2 12 16 16 19 16 21 19 19 22 22 27 18 10 11 11 11 14 17 17 16 14 11 11 8 10 8 6 6 10 10 7 8
1 11 20 6 4 7 8 13 17 18 17 5 17 24 15 12 19 23 26 22 24 21 20 20 7 9 12 16 15 15 17 17 16 13 11 5 8 3 4 5 6 8 8 8
18 10 11 9 8 5 12 11 19 18 6 6 11 21 16 11 10 18 22 19 19 20 22 22 8 10 8 11 16 18 19 19 17 14 8 5 6 4 3 3 5 7 9 9
10 7 12 7 7 15 21 13 13 10 2 10 3 25 4 11 18 16 19 17 14 18 19 16 7 8 12 16 9 12 15 17 16 17 15 15 11 10 8 9 7 7 9 9
10 2 4 7 17 9 13 6 7 3 4 6 4 5 2 5 9 13 12 11 15 15 14 16 7 11 10 8 11 11 14 15 15 18 18 15 13 9 5 5 10 9 8 9
11 3 6 9 5 10 3 4 4 4 3 9 11 8 22 6 8 4 6 10 11 11 14 9 9 6 5 6 9 11 14 15 15 17 17 18 18 11 10 10 10 9 8 8
3 6 3 6 5 2 4 5 5 5 2 13 7 6 25 8 8 9 13 10 11 11 10 17 10 8 6 7 8 11 15 15 14 17 17 17 16 14 15 14 12 13 9 9
4 16 9 7 10 9 8 10 9 8 9 17 7 11 18 8 9 6 6 8 9 12 11 10 11 6 5 8 6 8 13 13 15 16 16 14 15 10 10 12 10 11 12 11
5 11 2 5 5 10 6 7 9 3 0 3 13 19 16 8 6 3 6 7 9 9 13 12 11 3 4 5 7 8 8 9 11 14 12 13 11 12 12 12 10 9 9 10
2 9 3 2 1 4 6 2 2 1 5 12 8 16 18 16 17 6 8 9 9 10 12 10 7 5 3 5 7 8 7 9 9 11 13 12 14 15 12 10 14 13 11 12
4 4 10 1 7 17 1 5 5 0 6 17 19 13 25 28 7 7 12 13 11 8 8 7 7 5 5 4 6 8 10 12 12 13 14 14 15 15 13 12 12 13 12 14
7 6 7 19 6 5 5 8 5 6 11 9 16 15 13 24 10 9 18 21 14 8 10 8 9 3 4 7 8 12 12 13 16 14 14 17 12 11 13 14 15 15 14 14
2 3 10 6 8 3 6 11 14 17 15 20 21 18 11 19 20 18 13 9 9 8 9 11 13 12 10 8 8 9 9 14 11 9 12 10 11 12 16 16 13 14 15 16
6 8 16 14 11 16 17 19 20 13 13 20 20 21 17 22 25 27 16 18 21 20 19 17 16 14 16 16 14 13 11 11 9 10 13 17 18 20 19 15 14 16 16 16
2 15 15 21 16 16 20 25 29 31 26 23 21 25 23 22 15 18 17 19 20 20 19 18 16 15 18 20 21 22 20 14 7 11 14 18 18 16 14 15 16 15 16 15
2 9 13 22 22 17 18 13 15 13 16 20 24 30 22 18 20 23 18 18 20 18 17 15 16 16 16 17 16 18 21 22 8 13 16 16 12 10 15 14 16 16 15 15
7 6 5 20 17 14 16 18 18 21 14 10 9 8 13 18 19 19 15 19 17 16 15 17 16 15 17 18 17 17 18 19 21 16 16 11 9 12 14 12 13 14 15 13
14 13 9 18 17 23 12 2 6 5 8 11 9 8 12 14 16 15 11 18 18 17 15 17 12 15 16 18 18 17 18 14 17 16 12 5 7 10 10 11 14 15 14 16
15 13 7 3 6 13 16 8 7 5 5 9 4 4 7 11 14 6 14 15 16 14 14 14 16 17 15 16 16 16 18 16 11 12 11 8 4 4 6 10 12 10 12 12
5 4 3 3 4 6 2 7 6 7 7 5 4 2 7 10 12 14 13 14 13 13 13 14 14 16 17 17 15 15 15 16 15 14 9 4 3 4 8 8 8 7 9 11
4 4 4 4 5 9 3 8 4 5 8 11 4 5 3 5 7 17 16 14 12 13 15 15 14 14 15 16 19 19 16 16 12 12 10 3 1 1 2 5 4 7 8 8
4 3 4 2 1 10 1 8 2 7 4 7 3 4 7 8 10 13 14 14 14 16 15 14 14 13 13 15 15 18 19 16 12 10 7 7 3 3 3 3 4 5 7 9
3 8 7 10 8 7 17 16 12 6 7 5 5 7 7 9 11 11 12 14 14 15 14 14 12 15 14 13 12 17 18 19 18 14 13 8 5 6 9 9 7 5 6 7
7 12 5 2 12 16 12 11 12 12 10 6 7 7 4 10 11 13 13 15 15 15 15 12 12 16 20 15 16 16 16 16 17 18 16 9 7 6 6 7 9 9 10 9
8 4 7 11 16 16 19 14 15 8 5 6 4 4 9 9 13 12 14 15 15 16 15 13 15 16 21 17 19 16 16 16 17 18 16 11 8 9 8 9 8 10 11 14
9 17 12 15 20 14 14 14 3 3 6 1 6 10 9 10 14 14 17 16 15 16 16 15 16 18 20 19 21 20 15 14 16 17 14 12 8 7 9 9 8 19 18 20
Wind_Direction
221 141 200 222 206 234 172 217 236 251 253 263 256 262 260 271 281 274 263 262 262 261 268 271 223 198 192 188 187 188 181 181 169 170 170 178 190 186 186 184 180 181 174 168
65 219 222 230 194 205 231 255 264 271 264 238 268 267 272 260 256 258 268 268 266 268 275 274 223 202 192 196 196 185 185 177 182 180 184 168 170 170 180 170 176 178 168 164
226 228 217 207 223 230 227 233 253 260 302 244 283 273 244 257 262 259 268 260 271 269 272 278 238 217 201 198 191 188 185 179 180 173 147 92 86 67 109 180 186 183 173 173
244 242 214 185 212 205 264 221 258 259 343 270 6 297 167 247 263 260 262 269 253 266 269 265 240 217 213 219 189 180 177 174 178 170 168 172 182 183 193 190 184 174 175 177
250 188 180 200 231 165 251 205 209 204 201 329 196 278 174 151 263 265 272 258 259 261 258 274 237 232 221 179 170 168 166 174 176 179 183 180 184 180 143 142 156 172 178 177
252 326 173 216 221 189 130 90 78 68 113 271 185 184 292 164 217 255 272 270 267 298 306 302 260 252 226 175 156 160 167 178 177 182 186 188 189 167 162 166 173 180 184 184
298 222 229 164 233 142 140 79 314 321 99 234 148 175 253 280 237 231 276 315 300 295 283 296 269 229 190 181 175 162 172 181 178 187 190 190 191 182 181 176 180 176 182 191
245 288 186 170 190 186 191 168 175 213 259 275 102 248 268 241 269 278 274 270 299 313 318 274 287 265 195 172 186 179 177 183 185 191 197 194 191 187 190 186 183 187 191 193
214 271 259 201 163 152 173 187 225 260 142 294 267 270 290 253 273 333 326 311 299 314 338 314 297 209 181 164 175 190 192 189 205 194 193 201 200 195 191 182 183 186 180 175
306 293 208 35 309 263 187 155 97 292 213 242 225 258 268 278 283 272 312 296 308 344 327 323 313 311 214 177 177 183 187 210 191 204 205 201 198 201 192 174 187 187 178 164
181 178 262 64 209 247 222 252 230 261 192 256 258 243 264 277 239 267 318 315 300 276 305 311 341 338 252 199 193 197 201 205 201 201 203 205 208 203 195 186 189 188 172 172
203 208 239 264 238 233 189 241 232 238 247 239 259 252 256 267 269 288 290 293 298 301 322 314 288 346 259 238 223 225 217 215 218 214 207 213 209 197 200 200 189 180 180 178
127 265 275 279 294 324 214 240 237 244 262 257 262 264 274 296 292 282 283 277 270 286 311 347 355 330 308 282 251 237 224 234 237 207 203 202 202 199 210 206 189 180 178 179
334 253 256 272 281 297 286 284 282 249 255 259 256 272 278 279 283 294 337 8 29 33 20 10 2 354 351 350 333 319 291 250 229 204 205 211 201 205 210 206 188 182 183 179
229 260 274 281 293 290 283 286 284 272 262 250 261 276 277 278 353 2 20 34 22 14 4 354 343 340 349 348 347 346 332 303 248 228 229 230 221 216 204 199 188 183 185 188
281 282 283 273 285 278 286 278 268 278 290 279 285 285 32 18 10 3 20 18 12 1 348 342 335 347 344 339 340 335 332 330 271 246 239 239 231 210 200 200 188 179 180 183
255 260 252 271 278 296 281 262 277 276 352 327 316 38 8 6 2 345 7 359 357 343 338 338 341 343 333 332 331 331 329 328 320 277 261 237 201 203 204 181 182 181 186 176
254 258 260 273 295 273 274 231 97 104 102 74 69 43 10 346 329 321 330 347 346 336 335 337 335 333 330 325 324 327 329 327 330 313 286 281 224 214 196 176 180 179 179 181
220 245 267 215 215 278 290 360 19 13 76 57 26 339 330 331 316 317 356 344 324 316 331 323 322 317 313 317 320 323 329 324 330 336 321 298 254 217 204 195 189 180 178 179
150 207 220 332 258 247 99 329 250 241 232 242 204 318 331 332 336 317 340 325 318 325 324 316 321 319 316 318 315 315 319 322 327 325 304 278 252 187 201 195 182 180 189 184
18 2 179 256 255 285 235 285 288 77 276 324 181 220 250 295 287 293 307 308 318 313 310 312 320 315 309 323 319 310 312 314 319 323 307 297 248 254 208 164 168 168 181 174
152 144 231 50 135 271 299 354 74 223 283 254 223 275 276 268 287 284 292 301 302 306 309 310 306 300 315 310 301 310 307 311 309 312 299 280 189 128 133 179 151 159 183 175
267 203 210 189 214 301 318 294 284 272 234 232 238 243 251 276 282 287 294 291 293 296 298 306 303 304 294 295 305 300 300 311 309 299 291 260 215 194 169 161 161 161 191 197
242 235 215 42 260 266 266 274 282 283 240 243 233 250 247 267 276 282 281 286 294 294 294 296 299 296 298 303 297 289 303 309 316 303 291 268 230 200 205 185 174 179 185 189
224 129 226 257 268 271 271 262 265 243 252 251 251 266 285 276 278 278 279 279 280 281 284 290 290 292 290 301 296 296 301 309 299 296 288 265 238 215 196 214 201 208 207 196
219 240 246 253 263 262 274 276 103 233 283 6 305 295 281 276 283 290 283 282 282 285 289 287 283 285 287 293 292 296 301 294 290 289 287 261 234 215 217 197 211 222 226 224